Location: Frydek-Mistek
(49.6830°N, 18.3330°E)
Time: 14:38:31
(UTC+02:00)

ISS - Pass Details

Date: 19 April 2026
Orbit: 414 x 424 km, 51.6° (Epoch: 18 May)

Event Time Altitude Azimuth Distance (km) Brightness Sun altitude
Exits shadow 04:39:17 - 185° (S) 1,915 -0.8 -10.7°
Reaches altitude 10° 04:40:55 10° 166° (SSE) 1,495 -1.1 -10.5°
Maximum altitude 04:42:33 13° 136° (SE) 1,326 -1.1 -10.3°
Drops below altitude 10° 04:44:11 10° 107° (ESE) 1,504 -0.3 -10.0°
Sets 04:47:10 0° 79° (ENE) 2,376 1.7 -9.6°
